Regional Weather Roundup
Issued by NWS

Home | Current Version | Previous Version | Graphics & Text | Print | Product List | Glossary On
Versions: 1 2 3 4 5 6 7 8 9 10 11 12 13 14 15 16 17 18 19 20 21 22 23 24 25 26 27 28
000
ASUS45 KCYS 181810
RWRWY

WYOMING REGIONAL WEATHER ROUNDUP
NATIONAL WEATHER SERVICE CHEYENNE WY
1200 PM MDT FRI APR 18 2014

NOTE:  "FAIR" INDICATES FEW OR NO CLOUDS BELOW 12,000 FEET
WITH NO SIGNIFICANT WEATHER AND/OR OBSTRUCTIONS TO VISIBILITY.

WYZ001-181900-
YELLOWSTONE NATIONAL PARK

CITY           SKY/WX    TMP DP  RH WIND       PRES   REMARKS
LK YELLOWSTONE   N/A     35  32  88 VRB7      29.90R WCI  29
6HR MIN TEMP:  32; 6HR MAX TEMP:  35; 6HR PCP:  0.64;

W YELLOWSTONE  NOT AVBL

$$
WYZ002>013-054>058-071-098>099-181900-
NORTHERN WYOMING

CITY           SKY/WX    TMP DP  RH WIND       PRES   REMARKS
JACKSON        LGT RAIN  39  37  93 S15       29.94R WCI  31
CODY           MOSUNNY   61  37  41 W12G20    29.73S
GREYBULL       PTSUNNY   61  35  37 S7        29.69F
6HR MIN TEMP:  43; 6HR MAX TEMP:  61;

WORLAND        PTSUNNY   65  34  31 S17       29.69F
6HR MIN TEMP:  45; 6HR MAX TEMP:  65;

SHERIDAN       PTSUNNY   65  38  36 VRB3      29.64F
6HR MIN TEMP:  37; 6HR MAX TEMP:  65;

BUFFALO        PTSUNNY   68  27  21 SW14G20   29.67F
6HR MIN TEMP:  43; 6HR MAX TEMP:  68;

GILLETTE       CLOUDY    68  33  27 S26G36    29.69F
6HR MIN TEMP:  39; 6HR MAX TEMP:  68;

HULETT         FAIR      64  32  29 S18       29.73
NEWCASTLE      FAIR      61  30  31 MISG      29.80

$$
WYZ014>020-022>026-101>103-181900-
CENTRAL WYOMING

CITY           SKY/WX    TMP DP  RH WIND       PRES   REMARKS
BIG PINEY      PTSUNNY   60  24  25 W26G33    29.92S
6HR MIN TEMP:  30; 6HR MAX TEMP:  60;

PINEDALE       CLOUDY    54  28  37 S14       29.92S
DUBOIS         MOCLDY    45  32  61 NW22G33   29.86R
LANDER         PTSUNNY   69  26  20 SW28G48   29.75S
6HR MIN TEMP:  39; 6HR MAX TEMP:  69;

RIVERTON       PTSUNNY   65  23  20 SW23G29   29.76F
6HR MIN TEMP:  35; 6HR MAX TEMP:  65;

CASPER         PTSUNNY   71  29  21 SW31G38   29.80F
6HR MIN TEMP:  45; 6HR MAX TEMP:  71;

DOUGLAS        CLOUDY    64  34  32 S9        29.84F
6HR MIN TEMP:  36; 6HR MAX TEMP:  65;


$$
WYZ021-027>030-104>119-181900-
SOUTHERN WYOMING

CITY           SKY/WX    TMP DP  RH WIND       PRES   REMARKS
EVANSTON       CLOUDY    59  20  22 W26G40    29.97R
6HR MIN TEMP:  47; 6HR MAX TEMP:  61;

KEMMERER       MOCLDY    57  21  24 W29G40    29.96S
FORT BRIDGER   FAIR      65  18  16 W31G40    29.98S
ROCK SPRINGS   MOSUNNY   66  22  18 S28G37    29.91F
6HR MIN TEMP:  46; 6HR MAX TEMP:  67;

DIXON          FAIR      65  28  25 S16G25    30.01F
RAWLINS        PTSUNNY   68  21  16 SW24G44   29.95F
6HR MIN TEMP:  46; 6HR MAX TEMP:  68;

SARATOGA       FAIR      68  23  18 SW29G37   29.99F
LARAMIE        CLOUDY    62  24  23 SW25G39   30.01F
6HR MIN TEMP:  41; 6HR MAX TEMP:  62;

CHEYENNE       CLOUDY    64  27  24 S16G25    29.98F
6HR MIN TEMP:  35; 6HR MAX TEMP:  65;

TORRINGTON     CLOUDY    70  39  32 S15       29.85F
6HR MIN TEMP:  36; 6HR MAX TEMP:  70;

PINE BLUFFS    FAIR      68  32  26 S17G24    29.96F

$$



USA.gov is the U.S. government's official web portal to all federal, state and local government web resources and services.